Regional Weather Roundup
Issued by NWS

Home | Current Version | Previous Version | Text Only | Print | Product List | Glossary On
Versions: 1 2 3 4 5 6 7 8 9 10 11 12 13 14 15 16 17 18 19 20 21 22 23 24 25 26 27 28 29 30 31 32 33 34 35 36 37 38 39 40 41 42 43 44 45 46 47 48 49 50
973
ASHW40 PHFO 161643
RWRHI

WEATHER ROUNDUP FOR HAWAII
NATIONAL WEATHER SERVICE HONOLULU HI
600 AM HST WED AUG 16 2017

THIS IS AN AUTOMATED REPORT THAT HAS NOT BEEN QUALITY CONTROLLED.

NOTE..."FAIR" INDICATES FEW OR NO CLOUDS BELOW 12,000 FEET WITH NO
SIGNIFICANT WEATHER AND/OR OBSTRUCTIONS TO VISIBILITY.

* - THESE SITES REPORT LIMITED FIELDS
# - BUOY DATA PROVIDED BY PACIFIC ISLANDS OCEAN OBSERVING SYSTEM.

HIZ001>004-161700-
KAUAI-NIIHAU-

CITY           SKY/WX    TMP DP  RH WIND       PRES   REMARKS
LIHUE APT      PTCLDY    79  69  71 E18       30.00S
PORT ALLEN*      N/A     75 N/A N/A NE12        N/A
POIPU*           N/A     77 N/A N/A E8G17       N/A
PRINCEVILLE*     N/A     73 N/A N/A S5          N/A
KOKOLE POINT*  NOT AVBL
MOLOAA DAIRY*    N/A     75  68  78 E3G14       N/A
WAIMEA HTS*      N/A     73  66  78 NE3G9       N/A
PUU OPAE*        N/A     66  61  82 N3          N/A
PUU LUA*       NOT AVBL
MAKAHA RIDGE*    N/A     70  63  78 E3          N/A
$$

HIZ005>011-161700-
OAHU-

CITY           SKY/WX    TMP DP  RH WIND       PRES   REMARKS
HONOLULU       PTCLDY    76  69  79 N5        29.97S
KALAELOA       CLOUDY    76  67  73 NE5       29.98S
KANEOHE MCB    NOT AVBL
WHEELER FIELD  FAIR      71  69  93 NW3       29.98R
BELLOWS*         N/A    N/A N/A N/A NE17        N/A
KAHUKU*          N/A    N/A N/A N/A NE7G15      N/A
WHEELER*         N/A    N/A N/A N/A NE1         N/A
WAIANAE HARBOR   N/A    N/A N/A N/A E7          N/A
DILLINGHAM*    NOT AVBL
KAHUKU TRN*      N/A     75  68  78 W7G17       N/A
KAWAILOA*        N/A     72  66  83 E10G18      N/A
KII*             N/A     79  70  73 E15         N/A
MAKUA RANGE*     N/A     75  66  73 W9G18       N/A
OAHU FOREST NW   N/A     70  64  83 E14G22      N/A
SCHOFIELD BRK*   N/A     72  70  94 S1          N/A
SCHOFIELD S*   NOT AVBL
WAIANAE VLY*     N/A     90  79  70 S5G17       N/A  HX 105
KUAOKALA*        N/A     73  66  78 NE18G25     N/A
HONOULIUULI*   NOT AVBL
MOKUOLOE IS*   NOT AVBL
PALEHUA*         N/A     66  64  94 NE12G18     N/A
WAIAWA PHB*    NOT AVBL
$$

HIZ012>013-161700-
MOLOKAI-

CITY           SKY/WX    TMP DP  RH WIND       PRES   REMARKS
MOLOKAI AIRPT  PTCLDY   N/A N/A N/A CALM      29.99R
KALAUPAPA      NOT AVBL
MAKAPULAPAI*     N/A     77  72  83 E12G18      N/A
MOLOKAI 1*     NOT AVBL
PUU ALII*        N/A     60  60 100 N3G12       N/A
$$

HIZ016-161700-
KAHOOLAWE-

CITY           SKY/WX    TMP DP  RH WIND       PRES   REMARKS
KAHOOLAWE*     NOT AVBL
HAKIOAWA*        N/A     69  66  90 MISG      30.39S
HONOKANAIA*      N/A     78  69  73 NE7G14      N/A
KANELOA*         N/A     73  68  83 E10G18    30.02R
KEALIALALO*    NOT AVBL
LUA MAKIKA*    NOT AVBL
$$

HIZ014>015-161700-
LANAI-

CITY           SKY/WX    TMP DP  RH WIND       PRES   REMARKS
LANAI CITY     FAIR      70  66  87 NE15      30.02R
LANAI 1*       NOT AVBL
$$

HIZ017>028-161700-
MAUI-

CITY           SKY/WX    TMP DP  RH WIND       PRES   REMARKS
KAHULUI        PTCLDY    74  68  81 NE10      29.96S
KAPALUA-W MAUI PTCLDY    73  64  73 E9        29.98
HANA AIRPORT   CLOUDY    73  68  83 NE9       30.02R
HANA*          NOT AVBL
HALEAKALA SUMM   N/A     52   0  11 NE15        N/A
MAALAEA BAY*     N/A     77 N/A N/A VRB13G20    N/A
HALEAKALA*     NOT AVBL
KAUPO GAP*     NOT AVBL
KULA 1*          N/A    N/A N/A N/A NE6         N/A
$$

HIZ023>026-161700-
BIG ISLAND OF HAWAII COAST AND LOWER SLOPES-

CITY           SKY/WX    TMP DP  RH WIND       PRES   REMARKS
KAILUA KONA    PTCLDY    73  64  73 NE6       29.93R
HILO           MOCLDY    70  68  93 SW6       29.97S
HONOKAA*         N/A     68 N/A N/A VRB1        N/A
KAWAIHAE MWT*    N/A     77 N/A N/A NE5G10      N/A
KAWAIHAE*        N/A     77 N/A N/A NE5       29.93S
SOUTH POINT*     N/A     70 N/A N/A NW8         N/A
UPOLU AIRPORT* NOT AVBL
KAMUELA*         N/A     64  63  94 NE14      30.06S
HAKALAU*         N/A     51  50  97 SW1         N/A
KALOKO-HONOKO*   N/A     73  63  68 NE6       29.92R
PALI 2*          N/A     64  61  88 S13         N/A
KEALAKOMO*       N/A     73  66  78 N9G23       N/A
KAUPULEHU*       N/A    N/A N/A N/A SE8         N/A
KAPAPALA*        N/A     61  61 100 N2          N/A
LOWER KAHUKU*    N/A     57  57 100 VRB2        N/A
PUHE CS*         N/A     77  63  61 E3G9        N/A
PUHO CS*         N/A     71  64  78 E2          N/A
PTA KEAMUKU*     N/A     59  54  82 E6          N/A
WAIKOLOA*        N/A     72  59  64 SE10G20     N/A
$$

HIZ027>028-161700-
BIG ISLAND OF HAWAII INTERIOR AND SUMMMITS-

CITY           SKY/WX    TMP DP  RH WIND       PRES   REMARKS
BRADSHAW FIELD CLOUDY    45  35  68 SE5       30.27S
MK VISITOR CEN   N/A     54 -11   6 NE3         N/A
MAUNA KEA*       N/A     39  -2  17 NE7         N/A
MAUNA LOA*       N/A     45  -8  11 MISG        N/A
MAUNA LOA 1*   NOT AVBL
PTA KIPUKA*      N/A     46  45  93 W3          N/A
PTA RANGE 17*    N/A     54  50  87 W6G12       N/A
PTA WEST*        N/A     77  72  83 SE10        N/A
NENE CABIN*      N/A    N/A N/A N/A VRB5        N/A
AHUMOA*          N/A    N/A N/A N/A SE8         N/A
PTA PORTABLE*  NOT AVBL
PUU MALI*        N/A    N/A N/A N/A E3G10       N/A
$$

HIC003-161700-
NORTHWEST ISLANDS-

CITY           SKY/WX    TMP DP  RH WIND       PRES   REMARKS
MIDWAY ISLAND  MOCLDY    79  75  89 E9        30.08S
MIDWAY NOS*      N/A     81 N/A N/A MISG      30.07S
FRENCH FRIGATE NOT AVBL
$$

PHZ110>124-180-161700-
BUOY REPORTS

STATION/POSITION TIME  TEMP    WIND        PRES    WAVE   SWELL
                       AIR SEA DIR/SP/G            HT/PER HT/DIR
                 (UTC) (F)     (DEG/KT/KT) (MB)    (FT/S) (FT/D)
BUOY 51001       1620   80 81   90/ 14/ 16 1016.6
BUOY 51101       1550   80 81   80/ 16/ 17 1016.8R   7/ 8   5/ 80
BUOY 51100       NOT AVBL
BUOY 51002       1620   79 80   60/ 16/ 21 1012.7
BUOY 51003       1550   80 81   70/  8/ 12 1013.5R   6/ 8   7/ 90
BUOY 51004       1550      80   60/ 16/ 19 1012.7R   7/ 8   5/ 80
WAIMEA BAY#      1602      78                N/A     5/ 8
MOKAPU POINT#    1604      80                N/A     7/ 8   2/ 90
LANAI#           NOT AVBL
BARBERS PT 2#    NOT AVBL
PAUWELA#         1609      80                N/A     6/ 8
HILO#            1627      80                N/A     7/ 9   2/140
KANEOHE BAY#     1625      80                N/A     5/ 8
KANEOHE BAY 2#   NOT AVBL
HANALEI#         1552      81                N/A     7/ 8   2/ 50
KAHULUI HARBOR   1606   76 80   30/  6/ 10 1014.9
HONOLULU HARBOR  1618   77 80  210/  2/  3 1015.6
PEARL HARBOR#    1600      80                N/A     3/15   2/160
KILO NALU        NOT AVBL
HILO HARBOR      1618   72 80  200/  1/  2 1014.8
MOKUOLOE         1536   79 81   80/ 11/ 17 1015.1R
NAWILIWILI       1618   78      60/ 11/ 14 1015.4
WHOTS BUOY       NOT AVBL
BUOY 51028       NOT AVBL
$$

......................KEY........................................
  SKY/WX - SKY CONDITIONS/PRESENT WEATHER
  TMP    - TEMPERATURE IN FAHRENHEIT
  DWPT   - DEWPOINT IN FAHRENHEIT
  RH     - RELATIVE HUMIDITY IN PERCENT
  WIND   - DIRECTION AND SPEED /MPH FOR ISLANDS...KTS FOR BUOYS/
  PRES   - MEAN SEA LEVEL PRESSURE IN INCHES OF HG
  VSB    - VISIBILITY IN MILES
  HX     - HEAT INDEX
  WCI    - WIND CHILL INDEX
  VRB    - VARIABLE WIND DIRECTION
  N/A    - NOT AVAILABLE




USA.gov is the U.S. government's official web portal to all federal, state and local government web resources and services.